User: anonymous   Login
Location: Vancouver
(49.2500°N, 123.1330°W)
Time: 18:48:45
(UTC-07:00)
Language:

YAOGAN 6 - Orbit

View from above orbital plane
View from above orbital plane
View from above satellite
View from above satellite

Ground track
Ground track

The orbit data is extracted from the following two-line orbital elements,

1 34839U 09021A   14298.15601782  .00006794  00000-0  30678-3 0  1459
2 34839 097.2739 009.4080 0033534 133.0133 311.6164 15.20777543305459
Epoch (UTC): 25 October 2014 03:44:39
Eccentricity: 0.0033534
inclination: 97.2739°
perigee height: 480 km
apogee height: 526 km
right ascension of ascending node: 9.4080°
argument of perigee: 133.0133°
revolutions per day: 15.20777543
mean anomaly at epoch: 311.6164°
orbit number at epoch: 30545

The dashed part of the orbit path shows where the satellite is in the earth's shadow,  

DLR